Benson, MN

4:12 PM CST on February 21, 2018 (GMT -0600)
Benson Municipal

Weather History for KBBB - February, 2013

Change the Weather History Date:

Friday, February 15, 2013

  Actual Average Record
Temperature  
Mean Temperature 2 °F -  
Max Temperature 12 °F 22 °F 45 °F (1981)
Min Temperature -7 °F 5 °F -22 °F (2001)
Degree Days  
Heating Degree Days 62    
Moisture  
Dew Point -1 °F    
Average Humidity 85    
Maximum Humidity 92    
Minimum Humidity 73    
Precipitation  
Precipitation 0.00 in - - ()
Sea Level Pressure  
Sea Level Pressure 30.29 in    
Wind  
Wind Speed 6 mph (NNW)    
Max Wind Speed 14 mph    
Max Gust Speed -    
Visibility 10 miles    
Events Snow    
Averages and records for this station are not official NWS values.
T = Trace of Precipitation, MM = Missing Value Source: NWS Daily Summary

Daily Weather History Graph

Daily Weather History Graph

Search for Another Location

Airport or City:

Trip Planner

Search our weather history database for the weather conditions in past years. The results will help you decide how hot, cold, wet, or windy it might be!

Date:

Astronomy

Feb. 15, 2013 Rise Set
Actual Time 7:23 AM CST 5:50 PM CST
Civil Twilight 6:53 AM CST 6:20 PM CST
Nautical Twilight 6:18 AM CST 6:55 PM CST
Astronomical Twilight 5:44 AM CST 7:29 PM CST
Moon 9:41 AM CST (2/15) No Moon Set
Length of Visible Light 11h 27m
Length of Day
10h 26m
Waxing Crescent, 30% of the Moon is Illuminated
Feb 15
Waxing Crescent
Feb 17
First Quarter
Feb 25
Full
Mar 4
Last Quarter
Mar 11
New

Hourly Weather History & Observations

Time (CST) Temp. Windchill Dew Point Humidity Pressure Visibility Wind Dir Wind Speed Gust Speed Precip Events Conditions
12:12 AM -2.2 °F -14.2 °F -5.8 °F 85% 30.24 in 10.0 mi NNW 5.8 mph - N/A   Overcast
12:33 AM -0.4 °F -10.4 °F -5.8 °F 78% 30.24 in 10.0 mi NNW 4.6 mph - N/A   Overcast
12:52 AM -2.2 °F -12.5 °F -5.8 °F 85% 30.24 in 10.0 mi North 4.6 mph - N/A   Mostly Cloudy
1:13 AM -2.2 °F -15.6 °F -5.8 °F 85% 30.24 in 10.0 mi North 6.9 mph - N/A   Clear
1:33 AM -2.2 °F -15.6 °F -5.8 °F 85% 30.24 in 10.0 mi North 6.9 mph - N/A   Clear
1:52 AM -0.4 °F -13.4 °F -4.0 °F 85% 30.24 in 10.0 mi North 6.9 mph - N/A   Mostly Cloudy
2:13 AM 1.4 °F -11.3 °F -2.2 °F 85% 30.24 in 10.0 mi North 6.9 mph - N/A   Overcast
2:32 AM 1.4 °F -11.3 °F -0.4 °F 92% 30.24 in 10.0 mi NNW 6.9 mph - N/A   Overcast
2:53 AM 3.2 °F -11.3 °F -0.4 °F 85% 30.25 in 10.0 mi North 9.2 mph - N/A   Overcast
3:13 AM 3.2 °F -12.2 °F 1.4 °F 92% 30.24 in 10.0 mi North 10.4 mph - N/A   Overcast
3:32 AM 1.4 °F -14.5 °F -0.4 °F 92% 30.25 in 10.0 mi North 10.4 mph - N/A   Scattered Clouds
3:53 AM -0.4 °F -14.7 °F -2.2 °F 92% 30.25 in 10.0 mi North 8.1 mph - N/A   Scattered Clouds
4:12 AM -0.4 °F -15.7 °F -4.0 °F 85% 30.25 in 10.0 mi North 9.2 mph - N/A   Mostly Cloudy
4:32 AM -0.4 °F -13.4 °F -4.0 °F 85% 30.26 in 10.0 mi North 6.9 mph - N/A   Mostly Cloudy
4:53 AM -0.4 °F -14.7 °F -4.0 °F 85% 30.26 in 10.0 mi North 8.1 mph - N/A   Scattered Clouds
5:12 AM -2.2 °F -16.8 °F -5.8 °F 85% 30.26 in 10.0 mi North 8.1 mph - N/A   Clear
5:32 AM -2.2 °F -18.0 °F -5.8 °F 85% 30.27 in 10.0 mi North 9.2 mph - N/A   Clear
5:53 AM -4.0 °F -17.8 °F -7.6 °F 85% 30.27 in 10.0 mi North 6.9 mph - N/A   Clear
6:12 AM -4.0 °F -19.0 °F -7.6 °F 85% 30.27 in 10.0 mi North 8.1 mph - N/A   Clear
6:33 AM -5.8 °F -19.9 °F -7.6 °F 92% 30.27 in 10.0 mi North 6.9 mph - N/A   Clear
6:53 AM -5.8 °F -14.5 °F -9.4 °F 84% 30.28 in 10.0 mi North 3.5 mph - N/A   Clear
7:12 AM -5.8 °F -16.7 °F -9.4 °F 84% 30.28 in 10.0 mi North 4.6 mph - N/A   Clear
7:33 AM -7.6 °F -18.8 °F -11.2 °F 84% 30.29 in 10.0 mi North 4.6 mph - N/A   Clear
7:52 AM -7.6 °F -16.5 °F -9.4 °F 92% 30.29 in 10.0 mi North 3.5 mph - N/A   Clear
8:12 AM -5.8 °F - -7.6 °F 92% 30.30 in 10.0 mi Calm Calm - N/A   Clear
8:33 AM -5.8 °F -14.5 °F -9.4 °F 84% 30.31 in 10.0 mi North 3.5 mph - N/A   Clear
8:52 AM -4.0 °F - -7.6 °F 85% 30.31 in 10.0 mi Calm Calm - N/A   Clear
9:12 AM -2.2 °F - -5.8 °F 85% 30.32 in 10.0 mi Calm Calm - N/A   Clear
9:33 AM -0.4 °F -10.4 °F -4.0 °F 85% 30.32 in 10.0 mi NNE 4.6 mph - N/A   Clear
9:53 AM 1.4 °F -9.9 °F -2.2 °F 85% 30.33 in 10.0 mi NNE 5.8 mph - N/A   Scattered Clouds
10:12 AM 1.4 °F -8.3 °F -2.2 °F 85% 30.33 in 10.0 mi North 4.6 mph - N/A   Mostly Cloudy
10:33 AM 1.4 °F -8.3 °F -0.4 °F 92% 30.33 in 10.0 mi North 4.6 mph - N/A   Scattered Clouds
10:53 AM 3.2 °F -6.2 °F -0.4 °F 85% 30.33 in 10.0 mi North 4.6 mph - N/A   Clear
11:12 AM 3.2 °F -7.8 °F -0.4 °F 85% 30.34 in 10.0 mi North 5.8 mph - N/A   Clear
11:52 AM 6.8 °F -3.5 °F 1.4 °F 79% 30.35 in 10.0 mi North 5.8 mph - N/A   Clear
12:12 PM 6.8 °F -3.5 °F 1.4 °F 79% 30.34 in 10.0 mi North 5.8 mph - N/A   Clear
12:33 PM 8.6 °F -3.7 °F 3.2 °F 79% 30.34 in 10.0 mi NNW 8.1 mph - N/A   Clear
12:52 PM 10.4 °F -1.5 °F 3.2 °F 73% 30.34 in 10.0 mi NNW 8.1 mph - N/A   Clear
1:12 PM 10.4 °F -1.5 °F 3.2 °F 73% 30.33 in 10.0 mi North 8.1 mph - N/A   Clear
1:33 PM 10.4 °F -0.4 °F 3.2 °F 73% 30.33 in 10.0 mi NNW 6.9 mph - N/A   Clear
1:52 PM 10.4 °F -1.5 °F 3.2 °F 73% 30.33 in 10.0 mi North 8.1 mph - N/A   Clear
2:12 PM 12.2 °F -1.0 °F 5.0 °F 73% 30.33 in 10.0 mi North 10.4 mph - N/A   Clear
2:33 PM 12.2 °F -1.8 °F 5.0 °F 73% 30.33 in 10.0 mi North 11.5 mph - N/A   Clear
2:52 PM 10.4 °F -4.1 °F 6.8 °F 85% 30.33 in 10.0 mi North 11.5 mph - N/A   Clear
3:13 PM 10.4 °F -3.3 °F 5.0 °F 79% 30.33 in 10.0 mi NNW 10.4 mph - N/A   Clear
3:32 PM 10.4 °F -5.4 °F 5.0 °F 79% 30.33 in 10.0 mi NNW 13.8 mph - N/A   Clear
3:52 PM 10.4 °F -4.1 °F 5.0 °F 79% 30.33 in 10.0 mi NNW 11.5 mph - N/A   Clear
4:13 PM 10.4 °F -2.4 °F 5.0 °F 79% 30.33 in 10.0 mi North 9.2 mph - N/A   Clear
4:32 PM 10.4 °F -2.4 °F 5.0 °F 79% 30.33 in 10.0 mi North 9.2 mph - N/A   Clear
4:52 PM 8.6 °F -3.7 °F 3.2 °F 79% 30.32 in 10.0 mi NNW 8.1 mph - N/A   Clear
5:13 PM 8.6 °F -3.7 °F 3.2 °F 79% 30.33 in 10.0 mi NNW 8.1 mph - N/A   Clear
5:32 PM 6.8 °F -4.8 °F 1.4 °F 79% 30.32 in 10.0 mi NNW 6.9 mph - N/A   Clear
5:52 PM 5.0 °F -6.9 °F 1.4 °F 85% 30.32 in 10.0 mi NNW 6.9 mph - N/A   Clear
6:13 PM 3.2 °F -10.3 °F -0.4 °F 85% 30.31 in 10.0 mi NW 8.1 mph - N/A   Clear
6:32 PM 1.4 °F -8.3 °F -0.4 °F 92% 30.31 in 10.0 mi NW 4.6 mph - N/A   Clear
6:52 PM -0.4 °F -10.4 °F -4.0 °F 85% 30.31 in 10.0 mi NW 4.6 mph - N/A   Clear
7:13 PM -0.4 °F -12.0 °F -4.0 °F 85% 30.30 in 10.0 mi NW 5.8 mph - N/A   Clear
7:32 PM -0.4 °F - -4.0 °F 85% 30.30 in 10.0 mi Calm Calm - N/A   Clear
7:52 PM -2.2 °F - -4.0 °F 92% 30.29 in 10.0 mi Calm Calm - N/A   Scattered Clouds
8:13 PM -0.4 °F - -4.0 °F 85% 30.30 in 10.0 mi Calm Calm - N/A Snow Light Snow
8:32 PM -0.4 °F - -2.2 °F 92% 30.29 in 10.0 mi Calm Calm - N/A Snow Light Snow
8:52 PM 1.4 °F - -0.4 °F 92% 30.29 in 10.0 mi Calm Calm - N/A Snow Light Snow
9:13 PM 3.2 °F - -0.4 °F 85% 30.28 in 10.0 mi Calm Calm - N/A Snow Light Snow
9:32 PM 3.2 °F - 1.4 °F 92% 30.28 in 10.0 mi Calm Calm - N/A Snow Light Snow
9:52 PM 5.0 °F - 1.4 °F 85% 30.28 in 10.0 mi Calm Calm - N/A Snow Light Snow
10:13 PM 6.8 °F - 3.2 °F 85% 30.27 in 10.0 mi Calm Calm - N/A Snow Light Snow
10:32 PM 6.8 °F - 5.0 °F 92% 30.26 in 10.0 mi Calm Calm - N/A Snow Light Snow
10:53 PM 8.6 °F - 6.8 °F 92% 30.26 in 10.0 mi Calm Calm - N/A Snow Light Snow
11:13 PM 8.6 °F 2.0 °F 6.8 °F 92% 30.26 in 10.0 mi NW 3.5 mph - N/A Snow Light Snow
11:32 PM 10.4 °F -0.4 °F 8.6 °F 92% 30.25 in 10.0 mi NNW 6.9 mph - N/A Snow Light Snow
11:53 PM 10.4 °F -1.5 °F 8.6 °F 92% 30.24 in 10.0 mi NNW 8.1 mph - N/A Snow Light Snow